This is the latest recevied weather packets stored in our database for station/object VA5EVR-13. If no packets are shown the sender has not sent any weather packets the latest 10 day(s).
| Time | Temp. | Humidity | Pressure | Rain* | Wind** | Luminosity | Snow |
|---|---|---|---|---|---|---|---|
| 1777604411 | 6.11° C | 54% | 88.8 hPa | 0 mm | - | - | - |
| 1777603811 | 6.11° C | 54% | 88.8 hPa | 0 mm | - | - | - |
| 1777603212 | 6.11° C | 54% | 88.8 hPa | 0 mm | - | - | - |
| 1777602612 | 6.11° C | 52% | 88.8 hPa | 0 mm | - | - | - |
| 1777602012 | 6.67° C | 51% | 88.8 hPa | 0 mm | - | - | - |
| 1777601412 | 6.67° C | 50% | 88.8 hPa | 0 mm | - | - | - |
| 1777600811 | 6.67° C | 51% | 88.8 hPa | 0 mm | - | - | - |
| 1777600211 | 7.78° C | 49% | 88.8 hPa | 0 mm | - | - | - |
| 1777599613 | 8.89° C | 44% | 88.8 hPa | 0 mm | - | - | - |
| 1777599012 | 10.56° C | 41% | 88.8 hPa | 0 mm | - | - | - |
| 1777598412 | 11.67° C | 41% | 88.8 hPa | 0 mm | - | - | - |
| 1777597812 | 12.22° C | 40% | 88.8 hPa | 0 mm | - | - | - |
| 1777597211 | 13.33° C | 39% | 88.8 hPa | 0 mm | - | - | - |
| 1777596612 | 14.44° C | 39% | 88.8 hPa | 0 mm | - | - | - |
| 1777596012 | 15.56° C | 38% | 88.8 hPa | 0 mm | - | - | - |
| 1777595411 | 15.56° C | 36% | 88.8 hPa | 0 mm | - | - | - |
| 1777594811 | 15.56° C | 35% | 88.8 hPa | 0 mm | - | - | - |
| 1777594212 | 15° C | 34% | 88.8 hPa | 0 mm | - | - | - |
| 1777593612 | 14.44° C | 35% | 88.8 hPa | 0 mm | - | - | - |
| 1777593012 | 14.44° C | 32% | 88.8 hPa | 0 mm | - | - | - |
| 1777592412 | 14.44° C | 32% | 88.8 hPa | 0 mm | - | - | - |
| 1777591811 | 14.44° C | 33% | 88.8 hPa | 0 mm | - | - | - |
| 1777591212 | 14.44° C | 34% | 88.8 hPa | 0 mm | - | - | - |
| 1777590612 | 15° C | 35% | 88.8 hPa | 0 mm | - | - | - |
| 1777590012 | 15° C | 36% | 88.8 hPa | 0 mm | - | - | - |
* Rain latest hour (hover to see other rain measurements)
** Current wind speed in m/s (hover to see current wind gust speed)